Weather History for KSNY - April, 2013

Change the Weather History Date:

Saturday, April 20, 2013

  Actual Average Record
Temperature  
Mean Temperature 46 °F 49 °F  
Max Temperature 60 °F 63 °F 86 °F (1962)
Min Temperature 31 °F 34 °F 8 °F (1966)
Degree Days  
Heating Degree Days 19 16  
Month to date heating degree days 560 387  
Since 1 July heating degree days 6167 5772  
Cooling Degree Days 0 0  
Month to date cooling degree days 0 0  
Year to date cooling degree days 0 0  
Moisture  
Dew Point 31 °F    
Average Humidity 57    
Maximum Humidity 78    
Minimum Humidity 35    
Precipitation  
Precipitation T in 0.07 in 1.63 in (1977)
Month to date precipitation 1.23 1.23  
Year to date precipitation 2.18 2.85  
Sea Level Pressure  
Sea Level Pressure 29.93 in    
Wind  
Wind Speed 9 mph (SSW)    
Max Wind Speed 16 mph    
Max Gust Speed 24 mph    
Visibility 10 miles    
Events Rain    
T = Trace of Precipitation, MM = Missing Value Source: NWS Daily Summary

Daily Weather History Graph

Daily Weather History Graph

Search for Another Location

Airport or City:

Trip Planner

Search our weather history database for the weather conditions in past years. The results will help you decide how hot, cold, wet, or windy it might be!

Date:

Astronomy

Apr. 20, 2013 Rise Set
Actual Time 6:04 AM MDT 7:37 PM MDT
Civil Twilight 5:35 AM MDT 8:06 PM MDT
Nautical Twilight 5:00 AM MDT 8:41 PM MDT
Astronomical Twilight 4:23 AM MDT 9:18 PM MDT
Moon 2:21 PM MDT (4/20) 2:58 AM MDT (4/20)
Length of Visible Light 14h 30m
Length of Day
13h 32m
Waxing Gibbous, 71% of the Moon is Illuminated
Apr 20
Waxing Gibbous
Apr 25
Full
May 2
Last Quarter
May 9
New
May 17
First Quarter

Hourly Weather History & Observations

Time (MDT) Temp. Windchill Dew Point Humidity Pressure Visibility Wind Dir Wind Speed Gust Speed Precip Events Conditions
12:53 AM 37.9 °F 31.5 °F 30.9 °F 76% 29.96 in 10.0 mi South 9.2 mph - N/A   Overcast
1:53 AM 37.9 °F 30.5 °F 30.0 °F 73% 29.94 in 10.0 mi South 11.5 mph - N/A   Overcast
2:53 AM 36.0 °F 28.5 °F 28.0 °F 73% 29.94 in 10.0 mi South 10.4 mph - N/A   Overcast
3:53 AM 33.1 °F 25.5 °F 27.0 °F 78% 29.93 in 10.0 mi South 9.2 mph - N/A   Clear
4:53 AM 32.0 °F 28.7 °F 26.1 °F 79% 29.93 in 10.0 mi South 3.5 mph - N/A   Mostly Cloudy
5:53 AM 32.0 °F 26.4 °F 27.0 °F 82% 29.92 in 10.0 mi SSW 5.8 mph - N/A   Overcast
6:53 AM 35.1 °F 32.2 °F 28.9 °F 78% 29.94 in 10.0 mi SSW 3.5 mph - N/A   Overcast
7:53 AM 37.0 °F 29.3 °F 28.9 °F 73% 29.97 in 10.0 mi SSE 11.5 mph - N/A   Overcast
8:53 AM 41.0 °F 36.4 °F 30.9 °F 67% 29.97 in 10.0 mi South 6.9 mph - N/A   Overcast
9:53 AM 48.9 °F - 30.9 °F 50% 29.93 in 10.0 mi South 10.4 mph - N/A   Mostly Cloudy
10:53 AM 54.0 °F - 30.0 °F 40% 29.91 in 10.0 mi South 13.8 mph - N/A   Partly Cloudy
11:53 AM 55.9 °F - 28.9 °F 36% 29.90 in 10.0 mi SSW 10.4 mph 21.9 mph N/A   Mostly Cloudy
12:53 PM 55.9 °F - 28.9 °F 36% 29.90 in 10.0 mi SW 4.6 mph - N/A   Overcast
1:53 PM 57.0 °F - 30.0 °F 36% 29.88 in 10.0 mi West 10.4 mph 24.2 mph N/A   Overcast
2:53 PM 57.0 °F - 34.0 °F 42% 29.89 in 10.0 mi NW 9.2 mph - 0.00 in   Overcast
3:53 PM 59.0 °F - 32.0 °F 36% 29.89 in 10.0 mi NNW 10.4 mph - N/A   Scattered Clouds
4:53 PM 59.0 °F - 32.0 °F 36% 29.89 in 10.0 mi North 9.2 mph - N/A   Mostly Cloudy
5:53 PM 57.0 °F - 32.0 °F 39% 29.90 in 10.0 mi Variable 3.5 mph - N/A   Overcast
6:53 PM 55.9 °F - 33.1 °F 42% 29.91 in 10.0 mi NE 4.6 mph - N/A   Overcast
7:53 PM 51.1 °F - 37.0 °F 59% 29.94 in 10.0 mi South 8.1 mph - N/A   Overcast
8:53 PM 43.0 °F 38.2 °F 34.0 °F 71% 29.97 in 10.0 mi South 8.1 mph - N/A   Partly Cloudy
9:53 PM 41.0 °F 35.8 °F 34.0 °F 76% 29.96 in 10.0 mi South 8.1 mph - N/A   Partly Cloudy
10:53 PM 45.0 °F 39.7 °F 34.0 °F 65% 29.95 in 10.0 mi SW 10.4 mph - N/A   Overcast
11:53 PM 46.9 °F - 33.1 °F 59% 29.95 in 10.0 mi SW 12.7 mph - 0.00 in Rain Light Rain